Location: Hokitika
(42.7170°S, 170.9670°E)
Time: 17:17:55
(UTC+13:00)

Cosmos 724 - Pass Details

Date: 24 January 2019
Orbit: 857 x 938 km, 65.6° (Epoch: 15 October)

Event Time Altitude Azimuth Distance (km) Brightness Sun altitude
Rises 22:28:50 0° 325° (NW) 3,522 7.4 -12.9°
Reaches altitude 10° 22:31:21 10° 323° (NW) 2,576 6.7 -13.3°
Maximum altitude 22:37:20 76° 236° (WSW) 922 4.5 -14.1°
Drops below altitude 10° 22:43:16 10° 150° (SSE) 2,550 6.9 -14.9°
Sets 22:45:45 0° 148° (SSE) 3,485 7.6 -15.2°
